Weather in Bochum

Germany     51°29′01″N   7°13′21″E
temp.,
°C
wind,
m/s
gust,
m/s
humid.,
%
clouds,
%
prec.,
mm/h
press.,
hPa
HPBL,
m
11 may, tue
tue1123:00+13ssw229098 0.9 100937
02:00+13sw1293100 2.2 100951
05:00+13ssw1195100 2.5 100825
08:00+12nw2597100 6.6 1009256
11:00+13nne2593100 0.1 1008330
14:00+14nne2485100 1.1 1007416
17:00+13nw1197100 5.6 100880
20:00+12w1497100 7.8 1007184
12 may, wed
wed1223:00+12wnw3699100 0.4 1009311
02:00+11wsw3798100 0.6 1009411
05:00+10wsw3897100 0.0 1010396
08:00+10w379199 0.1 1011435
11:00+14w3461100 0.0 10121268
14:00+15w3357100 0.3 10121335
17:00+16nw2249100 0.1 10111538
20:00+14ne1362100 0.1 1011110
13 may, thu
thu1323:00+12ene1172100 0.0 101126
02:00+11ese249098 0.5 1011139
05:00+10ene2594100 0.2 1009158
08:00+11ene1290100 0.3 1009182
11:00+13ene2379100 0.7 1009480
14:00+14ene2272100 1.7 1007842
17:00+15ene3367100 0.9 1007942
20:00+13ene3571100 1.1 1007604
14 may, fri
fri1423:00+10ene2583100 0.0 1008279
02:00+9e1287100 0.0 100754
05:00+8e119094 0.1 100725
08:00+10ne007998 0.3 1008240
11:00+11wsw2281100 0.1 1009391
14:00+15wsw1163100 0.1 1008859
17:00+14wsw347795 1.1 1008774
20:00+12wsw2591100 2.4 1009221
15 may, sat
sat1523:00+10ssw23945 0.3 101048
02:00+8ssw27960 0.3 1010188
05:00+7s25960 0.0 1010117
08:00+9ssw37885 0.0 1010307
11:00+14ssw566281 0.1 10091356
14:00+12ssw5774100 0.3 1008985
17:00+15sw4756100 0.1 10061541
20:00+10sw3990100 1.4 1006470